TimeAKDT,TemperatureF,Dew PointF,Humidity,Sea Level PressureIn,VisibilityMPH,Wind Direction,Wind SpeedMPH,Gust SpeedMPH,PrecipitationIn,Events,Conditions,WindDirDegrees,DateUTC
12:53 AM,62.1,54.0,75,29.80,10.0,Calm,Calm,-,N/A,,Clear,0,2013-08-02 08:53:00
1:53 AM,60.1,52.0,75,29.79,10.0,East,5.8,-,N/A,,Clear,80,2013-08-02 09:53:00
2:53 AM,60.1,51.1,72,29.79,10.0,Calm,Calm,-,N/A,,Clear,0,2013-08-02 10:53:00
3:53 AM,57.9,52.0,81,29.80,10.0,Calm,Calm,-,N/A,,Clear,0,2013-08-02 11:53:00
4:53 AM,55.9,48.9,77,29.81,10.0,Calm,Calm,-,N/A,,Clear,0,2013-08-02 12:53:00
5:53 AM,57.9,48.9,72,29.82,10.0,Calm,Calm,-,N/A,,Clear,0,2013-08-02 13:53:00
6:53 AM,66.0,51.1,59,29.82,10.0,Calm,Calm,-,N/A,,Clear,0,2013-08-02 14:53:00
7:53 AM,68.0,51.1,55,29.83,10.0,South,4.6,-,N/A,,Clear,180,2013-08-02 15:53:00
8:53 AM,71.1,50.0,47,29.83,10.0,Variable,3.5,-,N/A,,Clear,0,2013-08-02 16:53:00
9:53 AM,72.0,50.0,46,29.84,10.0,Calm,Calm,-,N/A,,Clear,0,2013-08-02 17:53:00
10:53 AM,71.1,52.0,51,29.84,10.0,Calm,Calm,-,N/A,,Clear,0,2013-08-02 18:53:00
11:53 AM,75.0,46.9,37,29.84,10.0,WSW,4.6,-,N/A,,Clear,240,2013-08-02 19:53:00
12:53 PM,79.0,46.0,31,29.83,10.0,Calm,Calm,-,N/A,,Clear,0,2013-08-02 20:53:00
1:53 PM,79.0,45.0,30,29.82,10.0,South,10.4,-,N/A,,Clear,170,2013-08-02 21:53:00
2:53 PM,80.1,43.0,27,29.81,10.0,South,9.2,-,N/A,,Clear,190,2013-08-02 22:53:00
3:53 PM,81.0,43.0,26,29.79,10.0,SW,8.1,-,N/A,,Clear,220,2013-08-02 23:53:00
4:53 PM,82.9,41.0,23,29.77,10.0,South,12.7,16.1,N/A,,Partly Cloudy,190,2013-08-03 00:53:00
5:53 PM,82.0,41.0,23,29.75,10.0,South,5.8,-,N/A,,Clear,190,2013-08-03 01:53:00
6:53 PM,81.0,44.1,27,29.74,10.0,SW,5.8,-,N/A,,Clear,220,2013-08-03 02:53:00
7:53 PM,79.0,45.0,30,29.73,10.0,SSW,5.8,-,N/A,,Clear,200,2013-08-03 03:53:00
8:53 PM,78.1,45.0,31,29.72,10.0,Calm,Calm,-,N/A,,Mostly Cloudy,0,2013-08-03 04:53:00
9:53 PM,70.0,51.1,51,29.72,10.0,Calm,Calm,-,N/A,,Clear,0,2013-08-03 05:53:00
10:53 PM,64.9,53.1,65,29.71,10.0,Calm,Calm,-,N/A,,Clear,0,2013-08-03 06:53:00
11:53 PM,63.0,52.0,67,29.69,10.0,Calm,Calm,-,N/A,,Clear,0,2013-08-03 07:53:00